TimeCET,TemperatureF,Dew PointF,Humidity,Sea Level PressureIn,VisibilityMPH,Wind Direction,Wind SpeedMPH,Gust SpeedMPH,PrecipitationIn,Events,Conditions,WindDirDegrees,DateUTC
12:00 AM,59.0,48.2,67,30.06,6.2,WNW,3.5,-,N/A,,Mostly Cloudy,300,2012-11-05 23:00:00
12:30 AM,59.0,48.2,67,30.06,6.2,WNW,10.4,-,N/A,,Mostly Cloudy,290,2012-11-05 23:30:00
1:00 AM,60,49,58,30.06,9,WNW,11.5,,,,Partly Cloudy,290,2012-11-06 00:00:00
1:00 AM,59.0,48.2,67,30.06,6.2,WNW,11.5,-,N/A,,Mostly Cloudy,290,2012-11-06 00:00:00
1:30 AM,59.0,50.0,72,30.04,6.2,NNW,3.5,-,N/A,,Mostly Cloudy,330,2012-11-06 00:30:00
2:00 AM,57.2,50.0,77,30.04,6.2,NW,3.5,-,N/A,,Mostly Cloudy,320,2012-11-06 01:00:00
2:30 AM,57.2,50.0,77,30.04,6.2,WNW,2.3,-,N/A,,Mostly Cloudy,300,2012-11-06 01:30:00
3:00 AM,57.2,51.8,82,30.04,6.2,WNW,3.5,-,N/A,,Mostly Cloudy,300,2012-11-06 02:00:00
3:30 AM,57.2,51.8,82,30.01,6.2,WNW,3.5,-,N/A,,Mostly Cloudy,300,2012-11-06 02:30:00
4:00 AM,57.2,51.8,82,30.01,6.2,NW,2.3,-,N/A,,Mostly Cloudy,310,2012-11-06 03:00:00
4:30 AM,57.2,51.8,82,30.01,6.2,West,3.5,-,N/A,,Mostly Cloudy,280,2012-11-06 03:30:00
5:00 AM,57.2,51.8,82,30.01,6.2,West,3.5,-,N/A,,Mostly Cloudy,260,2012-11-06 04:00:00
5:30 AM,57.2,53.6,88,30.01,4.3,NW,1.2,-,N/A,Rain,Rain,310,2012-11-06 04:30:00
6:00 AM,55.4,53.6,94,30.04,2.5,WNW,5.8,-,N/A,Rain,Rain,300,2012-11-06 05:00:00
6:30 AM,55.4,53.6,94,30.04,3.1,WNW,13.8,-,N/A,Rain,Rain,290,2012-11-06 05:30:00
7:00 AM,56,54,92,30.05,4,WNW,8.1,,,Rain,Rain,300,2012-11-06 06:00:00
7:00 AM,55.4,53.6,94,30.04,3.7,WNW,8.1,-,N/A,Rain,Rain,300,2012-11-06 06:00:00
7:30 AM,55.4,53.6,94,30.04,5.0,NW,4.6,-,N/A,Rain,Rain,310,2012-11-06 06:30:00
8:00 AM,55.4,55.4,100,30.04,3.1,WNW,5.8,-,N/A,Rain,Light Rain,300,2012-11-06 07:00:00
8:30 AM,55.4,55.4,100,30.04,3.1,West,8.1,-,N/A,Rain,Light Rain,280,2012-11-06 07:30:00
9:00 AM,57.2,55.4,94,30.04,3.1,Variable,2.3,-,N/A,Rain,Light Rain,0,2012-11-06 08:00:00
9:13 AM,57.2,55.4,94,30.04,1.9,West,3.5,-,N/A,Rain,Light Rain,280,2012-11-06 08:13:00
9:30 AM,55.4,55.4,100,30.04,1.9,West,9.2,-,N/A,Rain,Rain,280,2012-11-06 08:30:00
10:00 AM,55.4,55.4,100,30.06,1.9,WNW,10.4,-,N/A,Rain,Rain,290,2012-11-06 09:00:00
10:30 AM,55.4,55.4,100,30.06,1.9,West,13.8,-,N/A,Rain,Rain,280,2012-11-06 09:30:00
11:00 AM,55.4,55.4,100,30.06,1.2,WNW,11.5,-,N/A,Rain,Rain,290,2012-11-06 10:00:00
11:30 AM,57.2,55.4,94,30.06,1.2,WNW,10.4,-,N/A,Rain,Rain,290,2012-11-06 10:30:00
12:00 PM,57.2,55.4,94,30.06,1.2,WNW,9.2,-,N/A,Rain,Rain,290,2012-11-06 11:00:00
12:30 PM,57.2,57.2,100,30.06,1.2,WNW,3.5,-,N/A,Rain,Rain,300,2012-11-06 11:30:00
1:00 PM,58,56,90,30.07,2,WNW,5.8,,,Rain,Light Rain,300,2012-11-06 12:00:00
1:00 PM,57.2,57.2,100,30.06,1.9,WNW,5.8,-,N/A,Rain,Light Rain,300,2012-11-06 12:00:00
1:30 PM,57.2,57.2,100,30.04,1.2,NW,4.6,-,N/A,Rain,Rain,310,2012-11-06 12:30:00
2:00 PM,57.2,57.2,100,30.04,1.2,NW,3.5,-,N/A,Rain,Rain,320,2012-11-06 13:00:00
2:30 PM,57.2,57.2,100,30.04,1.9,WNW,3.5,-,N/A,,Mostly Cloudy,300,2012-11-06 13:30:00
3:00 PM,57.2,57.2,100,30.04,1.9,WNW,4.6,-,N/A,Rain,Light Rain,300,2012-11-06 14:00:00
3:30 PM,59.0,57.2,94,30.04,2.5,WNW,4.6,-,N/A,Rain,Light Rain,290,2012-11-06 14:30:00
4:00 PM,59.0,57.2,94,30.06,1.9,WNW,6.9,-,N/A,Rain,Light Rain,300,2012-11-06 15:00:00
4:30 PM,59.0,57.2,94,30.06,1.9,WNW,4.6,-,N/A,Rain,Light Rain,290,2012-11-06 15:30:00
5:00 PM,59.0,57.2,94,30.06,1.9,WNW,3.5,-,N/A,Rain,Light Rain,300,2012-11-06 16:00:00
5:30 PM,59.0,57.2,94,30.06,2.5,WNW,2.3,-,N/A,Rain,Light Rain,290,2012-11-06 16:30:00
6:00 PM,59.0,57.2,94,30.06,2.5,Calm,Calm,-,N/A,Rain,Light Rain,0,2012-11-06 17:00:00
6:30 PM,59.0,57.2,94,30.06,2.5,West,1.2,-,N/A,Rain,Light Rain,270,2012-11-06 17:30:00
7:00 PM,59,57,91,30.09,2,Calm,Calm,,,Rain,Light Rain,,2012-11-06 18:00:00
7:00 PM,59.0,57.2,94,30.09,2.5,Calm,Calm,-,N/A,Rain,Light Rain,0,2012-11-06 18:00:00
7:30 PM,59.0,59.0,100,30.09,2.5,SSE,5.8,-,N/A,Rain,Light Rain,160,2012-11-06 18:30:00
8:00 PM,59.0,59.0,100,30.12,2.5,SE,6.9,-,N/A,Rain,Light Rain,130,2012-11-06 19:00:00
8:30 PM,59.0,59.0,100,30.12,2.5,SE,5.8,-,N/A,Rain,Light Rain,140,2012-11-06 19:30:00
9:00 PM,59.0,59.0,100,30.12,2.5,SE,6.9,-,N/A,Rain,Light Rain,140,2012-11-06 20:00:00
9:30 PM,59.0,57.2,94,30.12,2.5,SE,8.1,-,N/A,Rain,Light Rain,130,2012-11-06 20:30:00
10:00 PM,59.0,59.0,100,30.12,2.5,ESE,5.8,-,N/A,Rain,Light Rain,120,2012-11-06 21:00:00
10:30 PM,59.0,57.2,94,30.15,3.7,SE,9.2,-,N/A,Rain,Light Rain,130,2012-11-06 21:30:00
11:00 PM,59.0,57.2,94,30.15,3.7,SE,6.9,-,N/A,Rain,Light Rain,130,2012-11-06 22:00:00
11:30 PM,59.0,57.2,94,30.15,3.7,SE,6.9,-,N/A,Rain,Light Rain,130,2012-11-06 22:30:00